Location: Larrial
(48.2758°N, 4.5331°W)
Time: 03:42:26
(UTC+00:00)

First-Move - Visible Passes

Search period start: 29 November 2021 00:00
Search period end: 09 December 2021 00:00
Orbit: 575 x 665 km, 97.6° (Epoch: 28 November)

Date Brightness Start Highest point End Pass type
(mag) Time Alt. Az. Time Alt. Az. Time Alt. Az.
29 Nov ? 03:58:53 10° NE 04:00:00 15° NE 04:00:00 15° NE visible
29 Nov ? 05:34:37 10° N 05:37:08 29° NNW 05:37:08 29° NNW visible
30 Nov ? 04:15:50 10° NNE 04:17:13 18° NE 04:17:13 18° NE visible
30 Nov ? 05:52:08 10° N 05:54:22 23° NNW 05:54:22 23° NNW visible
01 Dec ? 04:32:55 10° NNE 04:34:27 20° NNE 04:34:27 20° NNE visible
01 Dec ? 06:09:44 10° NNW 06:11:35 18° NW 06:11:35 18° NW visible
01 Dec ? 17:09:04 10° SW 17:11:42 16° W 17:14:21 10° NW visible
02 Dec ? 04:50:06 10° NNE 04:51:41 21° NNE 04:51:41 21° NNE visible
02 Dec ? 06:27:33 10° NNW 06:28:50 14° NW 06:28:50 14° NW visible
02 Dec ? 17:28:13 10° W 17:29:10 11° W 17:30:09 10° WNW visible
03 Dec ? 05:07:22 10° N 05:08:56 21° N 05:08:56 21° N visible
03 Dec ? 06:45:51 10° NW 06:46:05 10° NW 06:46:05 10° NW visible
04 Dec ? 05:24:44 10° N 05:26:11 20° N 05:26:11 20° N visible
05 Dec ? 04:06:10 10° NNE 04:06:17 11° NE 04:06:17 11° NE visible
05 Dec ? 05:42:10 10° N 05:43:27 18° N 05:43:27 18° N visible
06 Dec ? 04:23:10 10° NNE 04:23:34 12° NNE 04:23:34 12° NNE visible
06 Dec ? 05:59:42 10° N 06:00:43 15° NNW 06:00:43 15° NNW visible
06 Dec ? 16:58:34 10° SW 17:01:43 20° W 17:04:58 10° NW visible
07 Dec ? 04:40:18 10° NNE 04:40:50 13° NNE 04:40:50 13° NNE visible
07 Dec ? 06:17:23 10° NNW 06:17:59 12° NNW 06:17:59 12° NNW visible
07 Dec ? 17:16:59 10° WSW 17:19:11 14° W 17:21:25 10° WNW visible
08 Dec ? 04:57:31 10° NNE 04:58:07 14° NNE 04:58:07 14° NNE visible
